Change the Weather History Date:

Wednesday, April 17, 2013

  Actual Average (KTYS) Record (KTYS)
Temperature  
Mean Temperature 69 °F 59 °F  
Max Temperature 79 °F 71 °F 90 °F (1896)
Min Temperature 59 °F 48 °F 24 °F (1875)
Degree Days  
Heating Degree Days 0 7  
Month to date heating degree days 151  
Since 1 July heating degree days 3508  
Cooling Degree Days 4 1  
Month to date cooling degree days 15  
Year to date cooling degree days 20  
Growing Degree Days 19 (Base 50)    
Moisture  
Dew Point 60 °F    
Average Humidity 83    
Maximum Humidity 97    
Minimum Humidity 55    
Precipitation  
Precipitation 0.12 in 0.13 in 1.06 in (2003)
Month to date precipitation 2.24  
Year to date precipitation 15.16  
Snow  
Snow 0.00 in 0.00 in - ()
Month to date snowfall 0.4  
Since 1 July snowfall 6.4  
Snow Depth -    
Sea Level Pressure  
Sea Level Pressure 30.21 in    
Wind  
Wind Speed 2 mph (NW)    
Max Wind Speed 17 mph    
Max Gust Speed -    
Visibility 10 miles    
Events Rain    
T = Trace of Precipitation, MM = Missing Value Source: NWS Daily Summary

Daily Weather History Graph

Daily Weather History Graph

Search for Another Location

Airport or City:

Trip Planner

Search our weather history database for the weather conditions in past years. The results will help you decide how hot, cold, wet, or windy it might be!

Date:

Astronomy

Apr. 17, 2013 Rise Set
Actual Time 7:00 AM EDT 8:10 PM EDT
Civil Twilight 6:34 AM EDT 8:36 PM EDT
Nautical Twilight 6:02 AM EDT 9:07 PM EDT
Astronomical Twilight 5:30 AM EDT 9:40 PM EDT
Moon 12:17 PM EDT (4/17) 1:42 AM EDT (4/17)
Length of Visible Light 14h 02m
Length of Day
13h 09m
Waxing Crescent, 42% of the Moon is Illuminated
Apr 17
Waxing Crescent
Apr 18
First Quarter
Apr 25
Full
May 2
Last Quarter
May 9
New

Hourly Weather History & Observations

Time (EDT) Temp. Dew Point Humidity Pressure Visibility Wind Dir Wind Speed Gust Speed Precip Events Conditions
12:15 AM 64.0 °F 59.0 °F 84% 30.23 in 10.0 mi Calm Calm - N/A   Overcast
12:35 AM 63.3 °F 59.0 °F 86% 30.24 in 10.0 mi Calm Calm - N/A   Overcast
12:55 AM 63.9 °F 59.0 °F 84% 30.23 in 10.0 mi Calm Calm - N/A   Overcast
1:15 AM 62.6 °F 59.5 °F 90% 30.22 in 10.0 mi Calm Calm - N/A   Overcast
1:35 AM 62.6 °F 58.6 °F 87% 30.22 in 10.0 mi Calm Calm - N/A   Mostly Cloudy
1:55 AM 61.3 °F 59.0 °F 92% 30.22 in 10.0 mi Calm Calm - N/A   Overcast
2:15 AM 60.1 °F 58.3 °F 94% 30.22 in 10.0 mi Calm Calm - N/A   Overcast
2:35 AM 61.3 °F 58.6 °F 91% 30.22 in 10.0 mi Calm Calm - N/A   Overcast
2:55 AM 61.2 °F 59.0 °F 93% 30.22 in 10.0 mi Calm Calm - N/A   Overcast
3:15 AM 61.2 °F 59.2 °F 93% 30.23 in 10.0 mi Calm Calm - N/A   Overcast
3:35 AM 61.0 °F 59.0 °F 93% 30.23 in 10.0 mi Calm Calm - N/A   Overcast
3:55 AM 61.2 °F 58.5 °F 91% 30.23 in 10.0 mi Calm Calm - N/A   Mostly Cloudy
4:15 AM 60.4 °F 58.3 °F 93% 30.23 in 10.0 mi Calm Calm - N/A   Overcast
4:35 AM 59.9 °F 58.5 °F 95% 30.24 in 10.0 mi Calm Calm - N/A   Overcast
4:55 AM 59.9 °F 58.6 °F 96% 30.24 in 10.0 mi Calm Calm - N/A   Overcast
5:15 AM 60.1 °F 58.5 °F 94% 30.23 in 10.0 mi Calm Calm - N/A   Overcast
5:35 AM 59.9 °F 58.5 °F 95% 30.23 in 10.0 mi Calm Calm - N/A   Overcast
5:55 AM 60.1 °F 58.3 °F 94% 30.24 in 10.0 mi Calm Calm - N/A   Overcast
6:15 AM 59.9 °F 58.6 °F 96% 30.24 in 10.0 mi Calm Calm - N/A   Overcast
6:35 AM 60.8 °F 58.5 °F 92% 30.24 in 10.0 mi Calm Calm - N/A   Overcast
6:55 AM 59.4 °F 58.1 °F 96% 30.25 in 10.0 mi Calm Calm - N/A   Mostly Cloudy
7:15 AM 60.1 °F 57.7 °F 92% 30.25 in 10.0 mi Calm Calm - N/A   Overcast
7:35 AM 59.4 °F 57.6 °F 94% 30.25 in 7.0 mi Calm Calm - N/A   Mostly Cloudy
7:55 AM 60.4 °F 59.0 °F 95% 30.26 in 10.0 mi Calm Calm - N/A   Mostly Cloudy
8:15 AM 61.9 °F 59.2 °F 91% 30.26 in 10.0 mi Calm Calm - N/A   Overcast
8:35 AM 62.4 °F 59.5 °F 90% 30.26 in 10.0 mi Calm Calm - N/A   Mostly Cloudy
8:55 AM 64.4 °F 59.4 °F 84% 30.26 in 10.0 mi Calm Calm - N/A   Scattered Clouds
9:15 AM 65.8 °F 59.4 °F 80% 30.26 in 10.0 mi Calm Calm - N/A   Scattered Clouds
9:35 AM 68.2 °F 60.3 °F 76% 30.26 in 10.0 mi Calm Calm - N/A   Scattered Clouds
10:15 AM 72.1 °F 59.9 °F 65% 30.25 in 10.0 mi Calm Calm - N/A   Scattered Clouds
10:35 AM 71.8 °F 59.5 °F 65% 30.24 in 10.0 mi Calm Calm - N/A   Mostly Cloudy
10:55 AM 72.5 °F 61.0 °F 67% 30.24 in 10.0 mi WSW 3.5 mph - N/A   Overcast
11:15 AM 73.6 °F 61.9 °F 67% 30.24 in 10.0 mi West 8.1 mph - N/A   Overcast
11:35 AM 72.1 °F 62.1 °F 70% 30.25 in 10.0 mi West 9.2 mph - N/A   Overcast
11:55 AM 73.8 °F 60.6 °F 63% 30.24 in 10.0 mi WSW 6.9 mph - N/A   Overcast
12:15 PM 74.3 °F 60.8 °F 63% 30.23 in 10.0 mi Calm Calm - N/A   Scattered Clouds
12:35 PM 74.3 °F 60.8 °F 63% 30.22 in 10.0 mi Calm Calm - N/A   Scattered Clouds
1:15 PM 77.5 °F 62.4 °F 59% 30.20 in 10.0 mi WSW 6.9 mph - N/A   Overcast
1:35 PM 79.0 °F 61.3 °F 55% 30.18 in 10.0 mi South 3.5 mph - N/A   Mostly Cloudy
1:55 PM 77.9 °F 63.3 °F 61% 30.17 in 10.0 mi North 8.1 mph - N/A   Overcast
2:15 PM 69.4 °F 55.9 °F 62% 30.18 in 10.0 mi North 17.3 mph - N/A   Overcast
2:35 PM 68.4 °F 57.4 °F 68% 30.18 in 10.0 mi ENE 3.5 mph - N/A Rain Light Rain
2:55 PM 64.4 °F 59.0 °F 83% 30.18 in 4.0 mi NNE 5.8 mph - 0.07 in Rain Light Rain
3:15 PM 64.2 °F 61.2 °F 90% 30.17 in 7.0 mi NE 4.6 mph - 0.03 in Rain Light Rain
3:35 PM 68.9 °F 62.6 °F 80% 30.17 in 10.0 mi Calm Calm - 0.03 in   Scattered Clouds
3:55 PM 71.4 °F 62.4 °F 73% 30.16 in 10.0 mi Calm Calm - 0.03 in   Scattered Clouds
4:35 PM 72.5 °F 62.8 °F 71% 30.15 in 10.0 mi ENE 5.8 mph - N/A   Clear
4:55 PM 71.1 °F 59.4 °F 66% 30.17 in 10.0 mi ENE 10.4 mph - N/A   Mostly Cloudy
5:15 PM 70.3 °F 59.0 °F 67% 30.16 in 10.0 mi NE 8.1 mph - N/A Rain Light Rain
5:35 PM 70.5 °F 61.5 °F 73% 30.17 in 10.0 mi ENE 3.5 mph - N/A   Mostly Cloudy
6:15 PM 70.2 °F 61.0 °F 73% 30.16 in 10.0 mi NNE 4.6 mph - N/A   Mostly Cloudy
6:35 PM 69.1 °F 60.4 °F 74% 30.16 in 10.0 mi NNE 4.6 mph - N/A   Mostly Cloudy
6:55 PM 67.8 °F 61.5 °F 80% 30.16 in 10.0 mi NE 3.5 mph - N/A   Mostly Cloudy
7:15 PM 66.9 °F 62.1 °F 84% 30.16 in 10.0 mi Calm Calm - N/A   Scattered Clouds
7:35 PM 64.9 °F 61.7 °F 89% 30.18 in 10.0 mi SW 4.6 mph - N/A   Clear
7:55 PM 66.4 °F 59.9 °F 80% 30.18 in 2.5 mi SW 5.8 mph - N/A   Haze
8:15 PM 65.3 °F 59.4 °F 81% 30.19 in 10.0 mi West 6.9 mph - N/A   Mostly Cloudy
8:35 PM 63.9 °F 60.1 °F 87% 30.20 in 10.0 mi WSW 6.9 mph - N/A Rain Rain
8:55 PM 63.1 °F 60.1 °F 90% 30.20 in 7.0 mi Calm Calm - 0.01 in Rain Rain
9:15 PM 62.2 °F 60.8 °F 95% 30.20 in 10.0 mi Calm Calm - N/A Rain Light Rain
9:35 PM 62.6 °F 60.3 °F 92% 30.20 in 10.0 mi SW 6.9 mph - N/A Rain Light Rain
9:55 PM 61.9 °F 60.3 °F 94% 30.19 in 10.0 mi WNW 5.8 mph - 0.01 in Rain Light Rain
10:15 PM 61.9 °F 60.1 °F 94% 30.18 in 10.0 mi WNW 4.6 mph - N/A Rain Light Rain
10:55 PM 61.7 °F 60.3 °F 95% 30.15 in 10.0 mi West 4.6 mph - N/A Rain Light Rain
11:15 PM 61.3 °F 60.3 °F 96% 30.13 in 10.0 mi Calm Calm - N/A Rain Light Rain
11:35 PM 60.8 °F 60.1 °F 97% 30.11 in 10.0 mi Calm Calm - N/A Rain Rain
11:55 PM 60.4 °F 59.7 °F 97% 30.11 in 7.0 mi Calm Calm - N/A   Scattered Clouds